(37657) = 1994 PX14 = 2000 WJ50

Discovered at La Silla on 1994-08-10 by E. W. Elst.

Orbit

Orbit type: Main Belt

Note: WebGL enabled browser required.

epoch2023-09-13.0
epoch JD2460200.5
perihelion date2021-04-27.72722
perihelion JD2459332.22722
argument of perihelion (°)249.88606
ascending node (°)161.91049
inclination (°)10.87669
eccentricity0.1035800
perihelion distance (AU)2.6776205
Tisserand w.r.t. Jupiter3.2
ΔV w.r.t. Earth (km/sec)10.8
semimajor axis (AU)2.9870155
mean anomaly (°)165.76919
mean daily motion (°/day)0.19091830
aphelion distance (AU)3.296
period (years)5.16
P-vector [x]0.61321781
P-vector [y]0.77674481
P-vector [z]0.14363641
Q-vector [x]-0.78773794
Q-vector [y]0.58784598
Q-vector [z]0.18413592
absolute magnitude14.63
phase slope0.15
uncertainty0
referenceMPO 776534
observations used1456
oppositions21
arc length (days)10588
first opposition used1994
last opposition used2023
residual rms (arc-secs)0.73
perturbers coarse indicatorM-v
perturbers precise indicator003Ek
first observation date used1994-08-10.0
last observation date used2023-08-06.0
computer nameMPCLINUX
JD of orbit computation2456819.463807
perihelion JD uncertainty (days)1.3700E-04
argument of perihelion uncertainty (°)3.4203E-05
ascending node uncertainty (°)2.4251E-05
inclination uncertainty (°)5.4678E-06
eccentricity uncertainty 5.2930E-08
perihelion distance uncertainty (AU)1.5716E-07
Minimum Orbit Intersection Distances (in AU)
for orbit epoch: 2460200.5, reference: E2023-VP5
Mercury2.3649
Venus1.96552
Earth1.71001
Mars1.2326
Jupiter2.10375
Saturn6.28628
Uranus15.3098
Neptune27.1053

Observations

1494 total observations over interval: 1994 08 10.29583 – 2023 08 06.278891
These data are available for download (format description).

Date (UT) J2000 RA J2000 Dec Magn Location Ref
1994 08 10.29583 22 59 01.78 -04 14 01.6 18.6   809 – European Southern Observatory, La Silla MPC 24347
1994 08 10.30764 22 59 01.39 -04 14 06.5   809 – European Southern Observatory, La Silla MPC 24347
1994 08 10.31944 22 59 01.04 -04 14 10.6   809 – European Southern Observatory, La Silla MPC 24347
1994 08 11.29931 22 58 32.19 -04 20 24.1   809 – European Southern Observatory, La Silla MPC 24347
1994 08 11.31111 22 58 31.82 -04 20 27.6   809 – European Southern Observatory, La Silla MPC 24347
1994 08 11.32292 22 58 31.41 -04 20 33.1   809 – European Southern Observatory, La Silla MPC 24347
1994 09 03.22083 22 44 00.99 -07 13 39.8   809 – European Southern Observatory, La Silla MPC 24682
1994 09 03.23403 22 44 00.39 -07 13 45.6   809 – European Southern Observatory, La Silla MPC 24682
1994 09 03.24722 22 43 59.72 -07 13 52.2   809 – European Southern Observatory, La Silla MPC 24682
1994 09 04.24722 22 43 17.35 -07 22 03.2 18.5   809 – European Southern Observatory, La Silla MPC 24682
1994 09 04.26042 22 43 16.72 -07 22 10.2   809 – European Southern Observatory, La Silla MPC 24682
1994 09 04.27361 22 43 16.12 -07 22 16.2   809 – European Southern Observatory, La Silla MPC 24682
1999 08 12.26250 21 50 24.06 -07 33 05.8 18.0 R 699 – Lowell Observatory-LONEOS MPS 62354
1999 08 12.28289 21 50 23.15 -07 33 14.2   699 – Lowell Observatory-LONEOS MPS 62354
1999 08 12.30326 21 50 22.31 -07 33 22.4   699 – Lowell Observatory-LONEOS MPS 62354
1999 09 07.27918 21 32 17.82 -10 41 51.2 19.1   704 – Lincoln Laboratory ETS, New Mexico MPS 23471
1999 09 07.29160 21 32 17.24 -10 41 56.6 19.4   704 – Lincoln Laboratory ETS, New Mexico MPS 23471
1999 09 07.30389 21 32 16.82 -10 42 03.3 20.0   704 – Lincoln Laboratory ETS, New Mexico MPS 23471
1999 09 07.31601 21 32 16.39 -10 42 06.3 19.8   704 – Lincoln Laboratory ETS, New Mexico MPS 23471
1999 09 07.32812 21 32 15.90 -10 42 13.2 19.5   704 – Lincoln Laboratory ETS, New Mexico MPS 23471
2000 10 31.35578 05 16 39.38 +07 24 59.6 18.7   704 – Lincoln Laboratory ETS, New Mexico MPS 23947
2000 10 31.37028 05 16 39.07 +07 24 55.6 19.3   704 – Lincoln Laboratory ETS, New Mexico MPS 23947
2000 10 31.38461 05 16 38.78 +07 24 49.8 19.5   704 – Lincoln Laboratory ETS, New Mexico MPS 23947
2000 10 31.39906 05 16 38.52 +07 24 46.4 19.5   704 – Lincoln Laboratory ETS, New Mexico MPS 23947
2000 10 31.41306 05 16 38.19 +07 24 42.6 19.8   704 – Lincoln Laboratory ETS, New Mexico MPS 23947
2000 11 26.32037 05 01 15.72 +05 39 32.0 17.6   704 – Lincoln Laboratory ETS, New Mexico MPS 22888
2000 11 26.33516 05 01 14.93 +05 39 29.8 17.7   704 – Lincoln Laboratory ETS, New Mexico MPS 22888
2000 11 26.34999 05 01 14.19 +05 39 27.7 17.8   704 – Lincoln Laboratory ETS, New Mexico MPS 22888
2000 11 26.36644 05 01 13.37 +05 39 25.2 17.5   704 – Lincoln Laboratory ETS, New Mexico MPS 22888
2000 11 26.38125 05 01 12.61 +05 39 23.9 17.5   704 – Lincoln Laboratory ETS, New Mexico MPS 22888
2000 11 27.35827 05 00 24.74 +05 36 53.9 17.3   704 – Lincoln Laboratory ETS, New Mexico MPS 22888
2000 11 27.37327 05 00 23.97 +05 36 51.6 17.9   704 – Lincoln Laboratory ETS, New Mexico MPS 22888
2000 11 27.38780 05 00 23.26 +05 36 49.2 17.9   704 – Lincoln Laboratory ETS, New Mexico MPS 22888
2000 11 27.40229 05 00 22.53 +05 36 47.2 18.2   704 – Lincoln Laboratory ETS, New Mexico MPS 22888
2000 11 27.41681 05 00 21.78 +05 36 45.7 17.7   704 – Lincoln Laboratory ETS, New Mexico MPS 22888
2000 11 28.29382 04 59 38.56 +05 34 39.1 17.8   704 – Lincoln Laboratory ETS, New Mexico MPS 22888
2000 11 28.29395 04 59 38.55 +05 34 38.9 18.0   704 – Lincoln Laboratory ETS, New Mexico MPS 22888
2000 11 28.30868 04 59 37.75 +05 34 36.9 19.2   704 – Lincoln Laboratory ETS, New Mexico MPS 22888
2000 11 28.32359 04 59 37.04 +05 34 35.3 18.4   704 – Lincoln Laboratory ETS, New Mexico MPS 22888
2000 11 28.32373 04 59 36.92 +05 34 35.9 19.1   704 – Lincoln Laboratory ETS, New Mexico MPS 22888
2000 11 28.33876 04 59 36.21 +05 34 31.9 19.2   704 – Lincoln Laboratory ETS, New Mexico MPS 22888
2000 12 01.47047 04 56 58.66 +05 28 02.7 18.6   608 – Haleakala-AMOS MPS 22888
2000 12 01.48102 04 56 58.03 +05 28 02.1 18.4   608 – Haleakala-AMOS MPS 22888
2000 12 01.49139 04 56 57.50 +05 28 00.3 18.5   608 – Haleakala-AMOS MPS 22888
2000 12 17.29839 04 43 45.46 +05 19 57.9 18.0 R 699 – Lowell Observatory-LONEOS MPS 24763
2000 12 17.31727 04 43 44.62 +05 19 59.6   699 – Lowell Observatory-LONEOS MPS 24763
2000 12 17.33600 04 43 43.70 +05 20 00.0   699 – Lowell Observatory-LONEOS MPS 24763
2000 12 17.35472 04 43 42.78 +05 20 01.3   699 – Lowell Observatory-LONEOS MPS 24763
2000 12 28.22765 04 36 07.99 +05 39 06.8 18.8   704 – Lincoln Laboratory ETS, New Mexico MPS 23947
2000 12 28.24305 04 36 07.41 +05 39 10.6 18.7   704 – Lincoln Laboratory ETS, New Mexico MPS 23947
2000 12 28.25842 04 36 06.88 +05 39 13.6 18.9   704 – Lincoln Laboratory ETS, New Mexico MPS 23947
2000 12 28.27382 04 36 06.30 +05 39 16.1 18.7   704 – Lincoln Laboratory ETS, New Mexico MPS 23947
2000 12 28.28979 04 36 05.69 +05 39 18.7 18.9   704 – Lincoln Laboratory ETS, New Mexico MPS 23947
2001 01 03.18462 04 32 57.25 +05 57 25.5 18.6 R 699 – Lowell Observatory-LONEOS MPS 23947
2001 01 03.20815 04 32 56.61 +05 57 30.4   699 – Lowell Observatory-LONEOS MPS 23948
2001 01 03.23152 04 32 55.80 +05 57 36.2   699 – Lowell Observatory-LONEOS MPS 23948
2001 01 03.25483 04 32 55.14 +05 57 41.1   699 – Lowell Observatory-LONEOS MPS 23948
2001 01 21.15905 04 28 36.83 +07 18 49.1 18.9   704 – Lincoln Laboratory ETS, New Mexico MPS 24763
2001 01 21.16563 04 28 36.74 +07 18 51.0 18.9 R 699 – Lowell Observatory-LONEOS MPS 24763
2001 01 21.17766 04 28 36.76 +07 18 55.8 19.5   704 – Lincoln Laboratory ETS, New Mexico MPS 24763
2001 01 21.18900 04 28 36.76 +07 18 58.2   699 – Lowell Observatory-LONEOS MPS 24763
2001 01 21.19464 04 28 36.77 +07 19 01.3 19.6   704 – Lincoln Laboratory ETS, New Mexico MPS 24763
2001 01 21.21256 04 28 36.70 +07 19 07.4   699 – Lowell Observatory-LONEOS MPS 24763
2001 01 21.21307 04 28 36.76 +07 19 07.1 19.1   704 – Lincoln Laboratory ETS, New Mexico MPS 24763
2001 01 21.22888 04 28 36.73 +07 19 12.9 19.6   704 – Lincoln Laboratory ETS, New Mexico MPS 24763
2001 01 21.23590 04 28 36.64 +07 19 13.7   699 – Lowell Observatory-LONEOS MPS 24763
2002 02 06.35438 11 35 33.25 +02 39 55.1 19.3 R 699 – Lowell Observatory-LONEOS MPS 48386
2002 02 06.37636 11 35 32.76 +02 40 02.7   699 – Lowell Observatory-LONEOS MPS 48386
2002 02 06.39837 11 35 32.24 +02 40 10.2   699 – Lowell Observatory-LONEOS MPS 48386
2002 02 06.42045 11 35 31.66 +02 40 17.7   699 – Lowell Observatory-LONEOS MPS 48386
2002 02 07.38731 11 35 08.25 +02 45 48.1 19.6   704 – Lincoln Laboratory ETS, New Mexico MPS 48386
2002 02 07.40214 11 35 07.83 +02 45 52.3 20.4   704 – Lincoln Laboratory ETS, New Mexico MPS 48386
2002 02 07.41673 11 35 07.38 +02 45 56.9 20.0   704 – Lincoln Laboratory ETS, New Mexico MPS 48386
2002 02 09.39942 11 34 15.69 +02 57 38.9 19.6   704 – Lincoln Laboratory ETS, New Mexico MPS 51286
2002 02 09.41392 11 34 15.35 +02 57 44.5 20.1   704 – Lincoln Laboratory ETS, New Mexico MPS 51286
2002 02 09.42839 11 34 14.90 +02 57 50.3 19.5   704 – Lincoln Laboratory ETS, New Mexico MPS 51286
2002 02 11.38287 11 33 19.82 +03 09 53.2 18.8   704 – Lincoln Laboratory ETS, New Mexico MPS 51286
2002 02 11.39745 11 33 19.38 +03 09 59.3 19.7   704 – Lincoln Laboratory ETS, New Mexico MPS 51286
2002 02 11.41178 11 33 18.95 +03 10 04.3 19.9   704 – Lincoln Laboratory ETS, New Mexico MPS 51286
2002 02 11.42622 11 33 18.49 +03 10 09.7 18.9   704 – Lincoln Laboratory ETS, New Mexico MPS 51286
2002 02 11.44052 11 33 18.04 +03 10 15.0 19.2   704 – Lincoln Laboratory ETS, New Mexico MPS 51286
2002 02 12.32701 11 32 51.75 +03 15 51.8 19.7 V 333 – Desert Eagle Observatory MPS 48386
2002 02 12.36786 11 32 50.51 +03 16 08.1 19.5 V 333 – Desert Eagle Observatory MPS 48386
2002 02 12.40832 11 32 49.27 +03 16 25.0 19.6 V 333 – Desert Eagle Observatory MPS 48386
2002 02 12.43136 11 32 48.49 +03 16 33.0 19.7 V 691 – Steward Observatory, Kitt Peak-Spacewatch MPS 51286
